Location: Kernascl�den
(48.0062°N, 3.3198°W)
Time: 22:30:13
(UTC+00:00)

Cosmos 1937 Rocket - Pass Details

Date: 21 January 2021
Orbit: 746 x 780 km, 74.0° (Epoch: 04 March)

Event Time Altitude Azimuth Distance (km) Brightness Sun altitude
Rises 19:54:46 0° 204° (SSW) 3,242 7.0 -29.5°
Reaches altitude 10° 19:57:08 10° 206° (SSW) 2,322 6.2 -29.8°
Enters shadow 20:00:32 41° 213° (SSW) 1,117 4.4 -30.4°
